This is the latest recevied weather packets stored in our database for station/object W7TTE. If no packets are shown the sender has not sent any weather packets the latest 10 day(s).
| Time | Temp. | Humidity | Pressure | Rain* | Wind** | Luminosity | Snow |
|---|---|---|---|---|---|---|---|
| 1777787568 | 24.44° C | 24% | 1012 hPa | 0 mm | - | 0 W/m² | - |
| 1777787263 | 24.44° C | 24% | 1012.2 hPa | 0 mm | - | 0 W/m² | - |
| 1777786960 | 25° C | 24% | 1012 hPa | 0 mm | - | 0 W/m² | - |
| 1777786658 | 25° C | 25% | 1012.4 hPa | 0 mm | - | 0 W/m² | - |
| 1777786356 | 25° C | 25% | 1012.5 hPa | 0 mm | - | 0 W/m² | - |
| 1777786052 | 25.56° C | 24% | 1012.4 hPa | 0 mm | - | 0 W/m² | - |
| 1777785749 | 25.56° C | 27% | 1012.2 hPa | 0 mm | - | 0 W/m² | - |
| 1777785444 | 25.56° C | 22% | 1012.1 hPa | 0 mm | - | 0 W/m² | - |
| 1777785142 | 26.11° C | 22% | 1012.2 hPa | 0 mm | - | 0 W/m² | - |
| 1777784838 | 26.67° C | 21% | 1012.2 hPa | 0 mm | - | 0 W/m² | - |
| 1777784535 | 27.22° C | 21% | 1012.4 hPa | 0 mm | - | 0 W/m² | - |
| 1777784232 | 27.22° C | 21% | 1012.4 hPa | 0 mm | - | 0 W/m² | - |
| 1777783930 | 26.67° C | 21% | 1012.5 hPa | 0 mm | - | 0 W/m² | - |
| 1777783626 | 26.67° C | 22% | 1012.2 hPa | 0 mm | - | 0 W/m² | - |
| 1777783324 | 26.67° C | 22% | 1012.2 hPa | 0 mm | - | 0 W/m² | - |
| 1777783020 | 26.67° C | 21% | 1012.2 hPa | 0 mm | - | 0 W/m² | - |
| 1777782718 | 26.67° C | 21% | 1012.3 hPa | 0 mm | - | 0 W/m² | - |
| 1777782413 | 26.67° C | 21% | 1012.1 hPa | 0 mm | - | 0 W/m² | - |
| 1777782110 | 26.67° C | 21% | 1012 hPa | 0 mm | - | 0 W/m² | - |
| 1777781806 | 27.22° C | 21% | 1011.9 hPa | 0 mm | - | 0 W/m² | - |
| 1777781504 | 27.22° C | 21% | 1012.1 hPa | 0 mm | - | 0 W/m² | - |
| 1777781202 | 27.22° C | 20% | 1012 hPa | 0 mm | - | 0 W/m² | - |
| 1777780899 | 27.78° C | 20% | 1011.8 hPa | 0 mm | - | 0 W/m² | - |
| 1777780595 | 27.78° C | 20% | 1011.7 hPa | 0 mm | - | 0 W/m² | - |
| 1777780293 | 27.78° C | 20% | 1011.6 hPa | 0 mm | - | 0 W/m² | - |
* Rain latest hour (hover to see other rain measurements)
** Current wind speed in m/s (hover to see current wind gust speed)